| time (UTC) | temp F | wind direction | speed knots | gust knots | rain 1hr in | rain 24hr in | rain mn in | humidity % | barometer mb |
| 20260504110321 | 46 | 32 | 1.7 | 4.3 | 0.00 | 0.01 | 0.01 | 82 | 1006.7 |
| 20260504100346 | 45 | 327 | 0.9 | 3.5 | 0.01 | 0.01 | 0.01 | 86 | 1006.9 |
| 20260504081821 | 45 | 35 | 0.9 | 3.5 | 0.00 | 0.00 | 0.00 | 81 | 1007.5 |
| 20260504081327 | 45 | 29 | 0.0 | 2.6 | 0.00 | 0.00 | 0.00 | 81 | 1007.6 |
| 20260504080826 | 45 | 43 | 0.9 | 2.6 | 0.00 | 0.00 | 0.00 | 81 | 1007.5 |
| 20260504080333 | 45 | 51 | 0.9 | 3.5 | 0.00 | 0.00 | 0.00 | 80 | 1007.5 |
| 20260504070310 | 45 | 46 | 1.7 | 3.5 | 0.00 | 0.00 | 0.00 | 71 | 1007.6 |
| 20260504050343 | 42 | 82 | 0.0 | 0.9 | 0.00 | 0.00 | 0.00 | 68 | 1008.0 |
| 20260504045828 | 42 | 70 | 0.0 | 0.9 | 0.00 | 0.00 | 0.00 | 68 | 1008.1 |
| 20260504045328 | 41 | 104 | 0.0 | 0.9 | 0.00 | 0.00 | 0.00 | 68 | 1008.1 |
| 20260504044835 | 41 | 110 | 0.0 | 0.9 | 0.00 | 0.00 | 0.00 | 68 | 1008.1 |
| 20260504044321 | 41 | 85 | 0.0 | 0.9 | 0.00 | 0.00 | 0.00 | 69 | 1008.1 |
| 20260504043820 | 42 | 75 | 0.0 | 1.7 | 0.00 | 0.00 | 0.00 | 69 | 1008.1 |
| 20260504043320 | 42 | 68 | 0.0 | 1.7 | 0.00 | 0.00 | 0.00 | 65 | 1008.2 |
| 20260504042827 | 42 | 55 | 0.0 | 1.7 | 0.00 | 0.00 | 0.00 | 65 | 1008.2 |
| 20260504042354 | 42 | 96 | 0.0 | 1.7 | 0.00 | 0.00 | 0.00 | 64 | 1008.2 |
| 20260504041813 | 42 | 60 | 0.0 | 1.7 | 0.00 | 0.00 | 0.00 | 64 | 1008.3 |
| 20260504041319 | 42 | 53 | 0.9 | 1.7 | 0.00 | 0.00 | 0.00 | 64 | 1008.3 |
| 20260504040819 | 42 | 82 | 0.0 | 1.7 | 0.00 | 0.00 | 0.00 | 64 | 1008.3 |
| 20260504040319 | 42 | 51 | 0.9 | 1.7 | 0.00 | 0.00 | 0.00 | 65 | 1008.3 |
| 20260504035825 | 41 | 96 | 0.9 | 1.7 | 0.00 | 0.00 | 0.00 | 66 | 1008.3 |
| 20260504035332 | 41 | 60 | 0.0 | 1.7 | 0.00 | 0.00 | 0.00 | 67 | 1008.3 |
| 20260504034832 | 41 | 64 | 0.0 | 0.9 | 0.00 | 0.00 | 0.00 | 66 | 1008.3 |
| 20260504034317 | 40 | 63 | 0.0 | 0.9 | 0.00 | 0.00 | 0.00 | 69 | 1008.3 |
| 20260504033818 | 39 | 90 | 0.0 | 0.9 | 0.00 | 0.00 | 0.00 | 72 | 1008.3 |
| 20260504033326 | 39 | 77 | 0.0 | 0.9 | 0.00 | 0.00 | 0.00 | 73 | 1008.3 |
| 20260504032852 | 39 | 80 | 0.0 | 0.0 | 0.00 | 0.00 | 0.00 | 72 | 1008.2 |
| 20260504032315 | 39 | 80 | 0.0 | 0.0 | 0.00 | 0.00 | 0.00 | 72 | 1008.2 |
| 20260504031818 | 39 | 80 | 0.0 | 0.9 | 0.00 | 0.00 | 0.00 | 71 | 1008.2 |
| 20260504031348 | 39 | 80 | 0.0 | 0.9 | 0.00 | 0.00 | 0.00 | 71 | 1008.2 |
| 20260504030834 | 39 | 80 | 0.0 | 0.9 | 0.00 | 0.00 | 0.00 | 71 | 1008.3 |
| 20260504030313 | 39 | 79 | 0.0 | 0.9 | 0.00 | 0.00 | 0.00 | 71 | 1008.3 |
| 20260504025814 | 40 | 79 | 0.0 | 0.9 | 0.00 | 0.00 | 0.00 | 69 | 1008.2 |
| 20260504025321 | 40 | 80 | 0.0 | 0.9 | 0.00 | 0.00 | 0.00 | 68 | 1008.3 |
| 20260504024821 | 40 | 77 | 0.0 | 0.9 | 0.00 | 0.00 | 0.00 | 69 | 1008.3 |
| 20260504024327 | 40 | 77 | 0.0 | 0.9 | 0.00 | 0.00 | 0.00 | 68 | 1008.3 |
| 20260504023827 | 40 | 77 | 0.0 | 0.9 | 0.00 | 0.00 | 0.00 | 68 | 1008.4 |
| 20260504023335 | 40 | 77 | 0.0 | 0.9 | 0.00 | 0.00 | 0.00 | 68 | 1008.5 |
| 20260504022814 | 40 | 80 | 0.0 | 0.9 | 0.00 | 0.00 | 0.00 | 68 | 1008.5 |
| 20260504022341 | 40 | 84 | 0.0 | 0.9 | 0.00 | 0.00 | 0.00 | 69 | 1008.6 |
| 20260504021820 | 40 | 82 | 0.0 | 0.9 | 0.00 | 0.00 | 0.00 | 69 | 1008.6 |
| 20260504021326 | 40 | 82 | 0.0 | 0.9 | 0.00 | 0.00 | 0.00 | 69 | 1008.6 |
| 20260504020826 | 40 | 82 | 0.0 | 0.9 | 0.00 | 0.00 | 0.00 | 69 | 1008.6 |
| 20260504020336 | 40 | 82 | 0.0 | 0.9 | 0.00 | 0.00 | 0.00 | 69 | 1008.6 |
| 20260504015820 | 40 | 82 | 0.0 | 0.9 | 0.00 | 0.00 | 0.00 | 68 | 1008.6 |
| 20260504015320 | 41 | 82 | 0.0 | 0.9 | 0.00 | 0.00 | 0.00 | 68 | 1008.7 |
| 20260504014820 | 41 | 82 | 0.0 | 0.9 | 0.00 | 0.00 | 0.00 | 67 | 1008.7 |
| 20260504014353 | 41 | 82 | 0.0 | 0.9 | 0.00 | 0.00 | 0.00 | 67 | 1008.7 |
| 20260504013813 | 41 | 82 | 0.0 | 0.9 | 0.00 | 0.00 | 0.00 | 66 | 1008.7 |
| 20260504013335 | 42 | 82 | 0.0 | 0.9 | 0.00 | 0.00 | 0.00 | 66 | 1008.8 |
| 20260504012820 | 42 | 82 | 0.0 | 0.9 | 0.00 | 0.00 | 0.00 | 66 | 1008.7 |
| 20260504012328 | 42 | 82 | 0.0 | 0.0 | 0.00 | 0.00 | 0.00 | 66 | 1008.7 |
| 20260504011811 | 42 | 82 | 0.0 | 0.0 | 0.00 | 0.00 | 0.00 | 66 | 1008.7 |
| 20260504011311 | 42 | 82 | 0.0 | 0.0 | 0.00 | 0.00 | 0.00 | 67 | 1008.6 |
| 20260504010820 | 42 | 82 | 0.0 | 0.0 | 0.00 | 0.00 | 0.00 | 66 | 1008.5 |
| 20260504010323 | 42 | 82 | 0.0 | 0.0 | 0.00 | 0.00 | 0.00 | 66 | 1008.5 |
| 20260504005829 | 43 | 82 | 0.0 | 0.0 | 0.00 | 0.01 | 0.00 | 66 | 1008.4 |
| 20260504005333 | 43 | 82 | 0.0 | 0.9 | 0.00 | 0.01 | 0.00 | 65 | 1008.4 |
| 20260504004818 | 43 | 82 | 0.0 | 0.9 | 0.00 | 0.01 | 0.00 | 65 | 1008.3 |
| 20260504004328 | 43 | 82 | 0.0 | 0.9 | 0.00 | 0.01 | 0.00 | 65 | 1008.3 |
| 20260504003829 | 43 | 82 | 0.0 | 0.0 | 0.00 | 0.01 | 0.00 | 64 | 1008.2 |
| 20260504003312 | 43 | 82 | 0.0 | 0.0 | 0.00 | 0.01 | 0.00 | 64 | 1008.3 |
| 20260504002821 | 43 | 82 | 0.0 | 0.0 | 0.00 | 0.01 | 0.00 | 64 | 1008.2 |
| 20260504002323 | 43 | 82 | 0.0 | 0.0 | 0.00 | 0.01 | 0.00 | 63 | 1008.2 |
| 20260504001835 | 44 | 82 | 0.0 | 0.0 | 0.00 | 0.01 | 0.00 | 63 | 1008.2 |
| 20260504001317 | 44 | 82 | 0.0 | 0.0 | 0.00 | 0.01 | 0.00 | 61 | 1008.2 |
| 20260504000820 | 45 | 82 | 0.0 | 0.0 | 0.00 | 0.01 | 0.00 | 59 | 1008.2 |
| 20260504000329 | 46 | 82 | 0.0 | 0.0 | 0.00 | 0.01 | 0.00 | 58 | 1008.2 |
| 20260503235836 | 46 | 82 | 0.0 | 0.0 | 0.00 | 0.01 | 0.00 | 57 | 1008.2 |
| 20260503235316 | 47 | 82 | 0.0 | 0.9 | 0.00 | 0.01 | 0.00 | 56 | 1008.1 |
| 20260503234818 | 47 | 82 | 0.0 | 0.9 | 0.00 | 0.01 | 0.00 | 55 | 1008.2 |
| 20260503234323 | 48 | 82 | 0.0 | 0.9 | 0.00 | 0.01 | 0.00 | 55 | 1008.1 |
| 20260503233857 | 49 | 82 | 0.0 | 0.9 | 0.00 | 0.01 | 0.00 | 54 | 1008.1 |
| 20260503233316 | 50 | 82 | 0.0 | 0.0 | 0.00 | 0.01 | 0.00 | 53 | 1008.0 |
| 20260503232817 | 51 | 82 | 0.0 | 0.0 | 0.00 | 0.01 | 0.00 | 51 | 1008.1 |
| 20260503232345 | 52 | 82 | 0.0 | 0.0 | 0.00 | 0.01 | 0.00 | 49 | 1008.0 |
| 20260503231833 | 53 | 96 | 0.0 | 0.0 | 0.00 | 0.01 | 0.00 | 48 | 1007.9 |
| 20260503231335 | 53 | 96 | 0.0 | 0.0 | 0.00 | 0.01 | 0.00 | 48 | 1008.0 |
| 20260503230820 | 52 | 96 | 0.0 | 0.0 | 0.00 | 0.01 | 0.00 | 50 | 1007.9 |
| 20260503230320 | 52 | 96 | 0.0 | 0.0 | 0.00 | 0.01 | 0.00 | 48 | 1007.9 |
| 20260503225827 | 52 | 103 | 0.0 | 0.0 | 0.00 | 0.02 | 0.00 | 48 | 1007.9 |
| 20260503225327 | 51 | 103 | 0.0 | 0.0 | 0.00 | 0.02 | 0.00 | 50 | 1008.0 |
| 20260503224836 | 50 | 103 | 0.0 | 0.0 | 0.00 | 0.02 | 0.00 | 50 | 1008.0 |
| 20260503224322 | 50 | 212 | 0.0 | 0.0 | 0.00 | 0.02 | 0.00 | 52 | 1007.9 |
| 20260503223846 | 50 | 212 | 0.0 | 0.0 | 0.00 | 0.02 | 0.00 | 53 | 1008.0 |
| 20260503223335 | 50 | 212 | 0.0 | 0.0 | 0.00 | 0.02 | 0.00 | 49 | 1007.9 |
| 20260503222324 | 50 | 89 | 0.0 | 0.0 | 0.00 | 0.02 | 0.00 | 50 | 1008.0 |
| 20260503221825 | 51 | 89 | 0.0 | 0.0 | 0.00 | 0.02 | 0.00 | 50 | 1008.0 |
| 20260503221332 | 51 | 89 | 0.0 | 0.0 | 0.00 | 0.02 | 0.00 | 49 | 1008.0 |
| 20260503220813 | 51 | 89 | 0.0 | 0.0 | 0.00 | 0.02 | 0.00 | 47 | 1008.0 |
| 20260503220319 | 51 | 89 | 0.0 | 0.0 | 0.00 | 0.02 | 0.00 | 48 | 1008.0 |
| 20260503215819 | 51 | 90 | 0.0 | 0.0 | 0.00 | 0.03 | 0.00 | 48 | 1008.0 |
| 20260503215346 | 51 | 87 | 0.0 | 0.9 | 0.00 | 0.03 | 0.00 | 50 | 1008.0 |
| 20260503214834 | 51 | 87 | 0.0 | 0.9 | 0.00 | 0.03 | 0.00 | 49 | 1008.0 |
| 20260503214334 | 51 | 87 | 0.0 | 0.9 | 0.00 | 0.03 | 0.00 | 48 | 1008.0 |
| 20260503213820 | 50 | 231 | 0.0 | 0.9 | 0.00 | 0.03 | 0.00 | 49 | 1008.0 |
| 20260503213320 | 50 | 231 | 0.0 | 0.9 | 0.00 | 0.03 | 0.00 | 47 | 1008.0 |
| 20260503212847 | 50 | 231 | 0.0 | 0.9 | 0.00 | 0.03 | 0.00 | 50 | 1008.0 |
| 20260503212333 | 50 | 231 | 0.0 | 0.0 | 0.00 | 0.03 | 0.00 | 53 | 1008.0 |
| 20260503211814 | 50 | 231 | 0.0 | 0.0 | 0.00 | 0.03 | 0.00 | 51 | 1008.0 |
| 20260503211315 | 50 | 231 | 0.0 | 0.9 | 0.00 | 0.03 | 0.00 | 50 | 1008.0 |
| 20260503210824 | 50 | 231 | 0.0 | 0.9 | 0.00 | 0.03 | 0.00 | 49 | 1007.9 |
| 20260503210324 | 50 | 231 | 0.0 | 0.9 | 0.00 | 0.03 | 0.00 | 51 | 1007.9 |
| 20260503205811 | 50 | 231 | 0.0 | 0.0 | 0.00 | 0.03 | 0.00 | 50 | 1007.9 |
| 20260503205311 | 50 | 106 | 0.0 | 2.6 | 0.00 | 0.03 | 0.00 | 50 | 1007.9 |
| 20260503204840 | 50 | 106 | 0.0 | 2.6 | 0.00 | 0.03 | 0.00 | 48 | 1007.9 |
| 20260503204318 | 51 | 70 | 0.0 | 1.7 | 0.00 | 0.03 | 0.00 | 49 | 1007.9 |
| 20260503203825 | 50 | 87 | 0.0 | 1.7 | 0.00 | 0.03 | 0.00 | 49 | 1007.9 |
| 20260503203325 | 50 | 101 | 0.0 | 0.9 | 0.00 | 0.03 | 0.00 | 52 | 1007.8 |
| 20260503202831 | 50 | 252 | 0.0 | 0.9 | 0.00 | 0.03 | 0.00 | 52 | 1007.9 |
| 20260503202310 | 50 | 281 | 0.0 | 0.9 | 0.00 | 0.03 | 0.00 | 49 | 1008.0 |
| 20260503201811 | 50 | 293 | 0.0 | 0.9 | 0.00 | 0.03 | 0.00 | 50 | 1008.0 |
| 20260503201316 | 50 | 236 | 0.0 | 0.9 | 0.00 | 0.03 | 0.00 | 50 | 1008.0 |
| 20260503200816 | 50 | 239 | 0.0 | 0.9 | 0.00 | 0.03 | 0.00 | 51 | 1008.1 |
| 20260503200323 | 50 | 249 | 0.0 | 1.7 | 0.00 | 0.03 | 0.00 | 50 | 1008.1 |
| 20260503195822 | 50 | 235 | 0.0 | 1.7 | 0.00 | 0.03 | 0.00 | 49 | 1008.2 |
| 20260503195329 | 50 | 301 | 0.0 | 2.6 | 0.00 | 0.03 | 0.00 | 49 | 1008.2 |
| 20260503194829 | 50 | 324 | 0.9 | 2.6 | 0.00 | 0.03 | 0.00 | 53 | 1008.3 |
| 20260503194315 | 50 | 231 | 0.0 | 2.6 | 0.00 | 0.03 | 0.00 | 54 | 1008.5 |
| 20260503193815 | 50 | 244 | 0.9 | 2.6 | 0.00 | 0.03 | 0.00 | 51 | 1008.5 |
| 20260503193342 | 49 | 252 | 0.0 | 2.6 | 0.00 | 0.03 | 0.00 | 54 | 1008.6 |
| 20260503192820 | 49 | 299 | 0.9 | 2.6 | 0.00 | 0.03 | 0.00 | 51 | 1008.7 |
| 20260503192328 | 49 | 265 | 0.0 | 2.6 | 0.00 | 0.03 | 0.00 | 53 | 1008.8 |
| 20260503191828 | 50 | 303 | 0.0 | 1.7 | 0.00 | 0.03 | 0.00 | 55 | 1008.8 |
| 20260503191334 | 50 | 293 | 0.9 | 2.6 | 0.00 | 0.03 | 0.00 | 50 | 1008.9 |
| 20260503190813 | 50 | 296 | 0.9 | 2.6 | 0.00 | 0.03 | 0.00 | 51 | 1008.8 |
| 20260503190320 | 50 | 274 | 0.0 | 3.5 | 0.00 | 0.03 | 0.00 | 51 | 1008.8 |
| 20260503185819 | 50 | 245 | 0.9 | 3.5 | 0.00 | 0.03 | 0.00 | 54 | 1008.9 |
| 20260503185326 | 49 | 294 | 0.9 | 1.7 | 0.00 | 0.03 | 0.00 | 54 | 1008.9 |
| 20260503184826 | 49 | 282 | 0.9 | 2.6 | 0.00 | 0.03 | 0.00 | 53 | 1009.0 |
| 20260503184313 | 49 | 275 | 0.0 | 2.6 | 0.00 | 0.03 | 0.00 | 55 | 1009.1 |
| 20260503183833 | 49 | 124 | 0.9 | 1.7 | 0.00 | 0.03 | 0.00 | 53 | 1009.1 |
| 20260503183319 | 49 | 238 | 0.9 | 2.6 | 0.00 | 0.03 | 0.00 | 53 | 1009.1 |
| 20260503182834 | 49 | 257 | 0.9 | 2.6 | 0.00 | 0.03 | 0.00 | 55 | 1009.2 |
| 20260503182332 | 48 | 122 | 0.0 | 2.6 | 0.00 | 0.03 | 0.00 | 56 | 1009.2 |
| 20260503181818 | 48 | 247 | 0.9 | 2.6 | 0.00 | 0.03 | 0.00 | 55 | 1009.2 |
| 20260503181317 | 48 | 252 | 0.9 | 2.6 | 0.00 | 0.03 | 0.00 | 53 | 1009.2 |
| 20260503180824 | 49 | 290 | 0.9 | 2.6 | 0.00 | 0.03 | 0.00 | 54 | 1009.2 |
| 20260503180324 | 49 | 293 | 0.9 | 2.6 | 0.00 | 0.03 | 0.00 | 53 | 1009.2 |
| 20260503175828 | 49 | 248 | 0.9 | 2.6 | 0.00 | 0.03 | 0.00 | 55 | 1009.2 |
| 20260503175328 | 49 | 245 | 0.0 | 2.6 | 0.00 | 0.03 | 0.00 | 54 | 1009.3 |
| 20260503174828 | 49 | 300 | 0.9 | 3.5 | 0.00 | 0.03 | 0.00 | 56 | 1009.2 |
| 20260503174334 | 49 | 295 | 0.9 | 3.5 | 0.00 | 0.03 | 0.00 | 53 | 1009.2 |
| 20260503173820 | 50 | 13 | 0.9 | 3.5 | 0.00 | 0.03 | 0.00 | 52 | 1009.2 |
| 20260503173320 | 50 | 236 | 0.9 | 2.6 | 0.00 | 0.03 | 0.00 | 54 | 1009.2 |
| 20260503172826 | 49 | 242 | 0.0 | 3.5 | 0.00 | 0.03 | 0.00 | 59 | 1009.3 |
| 20260503172326 | 48 | 255 | 0.9 | 3.5 | 0.00 | 0.03 | 0.00 | 54 | 1009.3 |
| 20260503171853 | 48 | 293 | 0.0 | 2.6 | 0.00 | 0.03 | 0.00 | 56 | 1009.3 |
| 20260503171311 | 48 | 210 | 0.9 | 2.6 | 0.00 | 0.03 | 0.00 | 54 | 1009.4 |
| 20260503170824 | 48 | 251 | 0.9 | 2.6 | 0.00 | 0.03 | 0.00 | 57 | 1009.4 |
| 20260503170325 | 48 | 277 | 0.0 | 1.7 | 0.00 | 0.03 | 0.00 | 57 | 1009.4 |
| 20260503150824 | 48 | 276 | 1.7 | 6.1 | 0.00 | 0.03 | 0.00 | 54 | 1010.1 |
| 20260503150324 | 49 | 160 | 1.7 | 6.1 | 0.00 | 0.03 | 0.00 | 53 | 1010.1 |
| 20260503131318 | 48 | 288 | 1.7 | 4.3 | 0.00 | 0.03 | 0.00 | 71 | 1010.8 |
| 20260503130825 | 48 | 283 | 1.7 | 4.3 | 0.00 | 0.03 | 0.00 | 71 | 1010.7 |
| 20260503130346 | 47 | 336 | 1.7 | 5.2 | 0.00 | 0.03 | 0.00 | 68 | 1010.8 |